When you browse on this site, cookies collect data to enhance your experience and personalize the content and advertising you see.
Visit our Privacy Policy to learn more. By continuing to use the site, you agree to this use of cookies and data.
  • In Hungary
  • List of Countries
  • For 7 days
  • Water Temperature
  • Weather Map
  • News
  • Weather Widgets
  • user-avatar
    Login

    Hourly Weather Sciacca

    Today, 18 November, Monday

    Time Temperature Precipitation Wind Pressure Humidity
    00:00 +12°C° 0.1 mm 4 mps 760 mmHg 85%
    01:00 +12°C° 0.1 mm 3 mps 760 mmHg 85%
    02:00 +11°C° 0 mm 3 mps 760 mmHg 85%
    03:00 +12°C° 0 mm 2 mps 760 mmHg 85%
    04:00 +12°C° 0 mm 2 mps 760 mmHg 85%
    05:00 +12°C° 0 mm 2 mps 760 mmHg 85%
    06:00 +12°C° 0 mm 2 mps 760 mmHg 85%
    07:00 +12°C° 0 mm 1 mps 760 mmHg 85%
    08:00 +14°C° 0 mm 2 mps 760 mmHg 78%
    09:00 +15°C° 0 mm 2 mps 760 mmHg 72%
    10:00 +17°C° 0 mm 3 mps 760 mmHg 66%
    11:00 +17°C° 0 mm 4 mps 760 mmHg 62%
    12:00 +16°C° 0 mm 6 mps 760 mmHg 59%
    13:00 +17°C° 0 mm 7 mps 760 mmHg 56%
    14:00 +16°C° 0 mm 7 mps 760 mmHg 62%
    15:00 +16°C° 0 mm 7 mps 759 mmHg 67%
    16:00 +15°C° 0 mm 6 mps 759 mmHg 72%
    17:00 +15°C° 0.1 mm 7 mps 759 mmHg 75%
    18:00 +15°C° 0.1 mm 7 mps 759 mmHg 77%
    19:00 +14°C° 0.1 mm 7 mps 759 mmHg 80%
    20:00 +14°C° 0 mm 7 mps 759 mmHg 80%
    21:00 +14°C° 0 mm 7 mps 759 mmHg 79%
    22:00 +14°C° 0 mm 7 mps 759 mmHg 79%
    23:00 +14°C° 0.2 mm 7 mps 759 mmHg 80%

    Tomorrow, 19 November, Tuesday

    Time Temperature Precipitation Wind Pressure Humidity
    00:00 +14°C° 0.2 mm 7 mps 759 mmHg 81%
    01:00 +14°C° 0.2 mm 7 mps 759 mmHg 82%
    02:00 +14°C° 0.2 mm 7 mps 759 mmHg 82%
    03:00 +14°C° 0.2 mm 7 mps 759 mmHg 82%
    04:00 +14°C° 0.2 mm 7 mps 758 mmHg 82%
    05:00 +14°C° 0.2 mm 6 mps 758 mmHg 82%
    06:00 +14°C° 0.2 mm 6 mps 758 mmHg 82%
    07:00 +14°C° 0.2 mm 5 mps 758 mmHg 81%
    08:00 +14°C° 0.5 mm 5 mps 758 mmHg 81%
    09:00 +14°C° 0.5 mm 5 mps 759 mmHg 80%
    10:00 +15°C° 0.5 mm 4 mps 759 mmHg 79%
    11:00 +15°C° 0.3 mm 4 mps 758 mmHg 74%
    12:00 +15°C° 0.3 mm 4 mps 758 mmHg 70%
    13:00 +15°C° 0.3 mm 4 mps 758 mmHg 65%
    14:00 +14°C° 0.4 mm 4 mps 758 mmHg 69%
    15:00 +14°C° 0.4 mm 4 mps 758 mmHg 74%
    16:00 +14°C° 0.4 mm 5 mps 758 mmHg 78%
    17:00 +13°C° 0.4 mm 4 mps 758 mmHg 82%
    18:00 +12°C° 0.4 mm 4 mps 758 mmHg 86%
    19:00 +11°C° 0.4 mm 3 mps 759 mmHg 89%
    20:00 +11°C° 0.1 mm 3 mps 759 mmHg 89%
    21:00 +11°C° 0.1 mm 3 mps 759 mmHg 89%
    22:00 +11°C° 0.1 mm 3 mps 759 mmHg 88%
    23:00 +11°C° 0 mm 4 mps 760 mmHg 88%

    Day after tomorrow, 20 November, Wednesday

    Time Temperature Precipitation Wind Pressure Humidity
    00:00 +11°C° 0 mm 4 mps 760 mmHg 88%
    01:00 +10°C° 0 mm 4 mps 760 mmHg 88%
    02:00 +10°C° 0 mm 4 mps 760 mmHg 88%
    03:00 +10°C° 0 mm 4 mps 760 mmHg 87%
    04:00 +10°C° 0 mm 4 mps 760 mmHg 87%
    05:00 +10°C° 0 mm 3 mps 760 mmHg 86%
    06:00 +10°C° 0 mm 3 mps 760 mmHg 86%
    07:00 +9°C° 0 mm 3 mps 761 mmHg 85%
    08:00 +12°C° 0 mm 2 mps 761 mmHg 78%
    09:00 +14°C° 0 mm 2 mps 761 mmHg 71%
    10:00 +16°C° 0 mm 2 mps 762 mmHg 64%
    11:00 +16°C° 0 mm 2 mps 761 mmHg 62%
    12:00 +17°C° 0 mm 2 mps 761 mmHg 60%
    13:00 +17°C° 0 mm 3 mps 761 mmHg 57%
    14:00 +17°C° 0 mm 3 mps 761 mmHg 61%
    15:00 +17°C° 0 mm 3 mps 761 mmHg 64%
    16:00 +16°C° 0 mm 3 mps 761 mmHg 67%
    17:00 +14°C° 0 mm 3 mps 761 mmHg 72%
    18:00 +13°C° 0 mm 3 mps 761 mmHg 76%
    19:00 +13°C° 0 mm 2 mps 761 mmHg 80%
    20:00 +13°C° 0 mm 2 mps 761 mmHg 81%
    21:00 +12°C° 0 mm 2 mps 761 mmHg 81%
    22:00 +12°C° 0 mm 2 mps 761 mmHg 81%
    23:00 +12°C° 0 mm 2 mps 761 mmHg 81%

    21 November, Thursday

    Time Temperature Precipitation Wind Pressure Humidity
    00:00 +12°C° 0 mm 1 mps 761 mmHg 80%
    01:00 +12°C° 0 mm 1 mps 761 mmHg 80%
    02:00 +12°C° 0 mm 1 mps 760 mmHg 80%
    03:00 +11°C° 0 mm 1 mps 760 mmHg 80%
    04:00 +11°C° 0 mm 1 mps 760 mmHg 79%
    05:00 +11°C° 0 mm 1 mps 760 mmHg 79%
    06:00 +11°C° 0 mm 1 mps 760 mmHg 79%
    07:00 +11°C° 0 mm 1 mps 760 mmHg 79%
    08:00 +13°C° 0 mm 1 mps 760 mmHg 74%
    09:00 +14°C° 0 mm 2 mps 760 mmHg 69%
    10:00 +16°C° 0 mm 2 mps 761 mmHg 64%
    11:00 +16°C° 0 mm 2 mps 760 mmHg 62%
    12:00 +17°C° 0 mm 2 mps 760 mmHg 60%
    13:00 +17°C° 0 mm 2 mps 760 mmHg 58%
    14:00 +17°C° 0 mm 2 mps 760 mmHg 63%
    15:00 +16°C° 0 mm 2 mps 759 mmHg 67%
    16:00 +16°C° 0 mm 2 mps 759 mmHg 72%
    17:00 +15°C° 0 mm 2 mps 759 mmHg 75%
    18:00 +14°C° 0 mm 2 mps 760 mmHg 77%
    19:00 +13°C° 0 mm 2 mps 760 mmHg 80%
    20:00 +13°C° 0 mm 2 mps 760 mmHg 79%
    21:00 +13°C° 0 mm 2 mps 760 mmHg 79%
    22:00 +13°C° 0 mm 2 mps 760 mmHg 78%
    23:00 +13°C° 0 mm 2 mps 760 mmHg 79%

    22 November, Friday

    Time Temperature Precipitation Wind Pressure Humidity
    00:00 +12°C° 0 mm 2 mps 760 mmHg 80%
    01:00 +11°C° 0 mm 3 mps 760 mmHg 81%
    02:00 +11°C° 0 mm 3 mps 760 mmHg 82%
    03:00 +11°C° 0 mm 3 mps 759 mmHg 82%
    04:00 +11°C° 0 mm 3 mps 759 mmHg 83%
    05:00 +11°C° 0 mm 3 mps 759 mmHg 83%
    06:00 +11°C° 0 mm 3 mps 759 mmHg 83%
    07:00 +11°C° 0 mm 3 mps 760 mmHg 84%
    08:00 +13°C° 0 mm 4 mps 760 mmHg 80%
    09:00 +14°C° 0 mm 4 mps 760 mmHg 77%
    10:00 +17°C° 0 mm 4 mps 760 mmHg 73%
    11:00 +16°C° 0 mm 5 mps 760 mmHg 71%
    12:00 +17°C° 0 mm 5 mps 759 mmHg 69%
    13:00 +17°C° 0 mm 5 mps 759 mmHg 67%
    14:00 +17°C° 0 mm 5 mps 759 mmHg 71%
    15:00 +16°C° 0 mm 5 mps 758 mmHg 74%
    16:00 +16°C° 0 mm 5 mps 758 mmHg 77%
    17:00 +15°C° 0 mm 5 mps 758 mmHg 81%
    18:00 +15°C° 0 mm 5 mps 758 mmHg 84%
    19:00 +14°C° 0 mm 5 mps 758 mmHg 87%
    20:00 +14°C° 0 mm 5 mps 758 mmHg 88%
    21:00 +14°C° 0 mm 5 mps 758 mmHg 89%
    22:00 +13°C° 0 mm 5 mps 758 mmHg 91%
    23:00 +13°C° 0 mm 5 mps 758 mmHg 90%

    23 November, Saturday

    Time Temperature Precipitation Wind Pressure Humidity
    00:00 +13°C° 0 mm 5 mps 758 mmHg 90%
    01:00 +13°C° 0 mm 5 mps 758 mmHg 90%
    02:00 +13°C° 0 mm 5 mps 757 mmHg 90%
    03:00 +13°C° 0 mm 5 mps 757 mmHg 90%
    04:00 +13°C° 0 mm 5 mps 757 mmHg 90%
    05:00 +13°C° 0.1 mm 5 mps 756 mmHg 90%
    06:00 +14°C° 0.1 mm 5 mps 756 mmHg 89%
    07:00 +14°C° 0.1 mm 5 mps 756 mmHg 89%
    08:00 +15°C° 0.2 mm 6 mps 756 mmHg 84%
    09:00 +16°C° 0.2 mm 7 mps 756 mmHg 79%
    10:00 +17°C° 0.2 mm 8 mps 756 mmHg 74%
    11:00 +17°C° 0.2 mm 8 mps 755 mmHg 73%
    12:00 +18°C° 0.2 mm 8 mps 755 mmHg 71%
    13:00 +18°C° 0.2 mm 8 mps 754 mmHg 69%
    14:00 +18°C° 0.2 mm 8 mps 753 mmHg 72%
    15:00 +17°C° 0.2 mm 8 mps 753 mmHg 74%
    16:00 +17°C° 0.2 mm 7 mps 752 mmHg 77%
    17:00 +16°C° 0.6 mm 7 mps 752 mmHg 80%
    18:00 +15°C° 0.6 mm 7 mps 752 mmHg 83%
    19:00 +13°C° 0.6 mm 8 mps 751 mmHg 86%
    20:00 +13°C° 0.5 mm 8 mps 751 mmHg 86%
    21:00 +15°C° 0.5 mm 8 mps 751 mmHg 86%
    22:00 +15°C° 0.5 mm 8 mps 751 mmHg 85%
    23:00 +13°C° 2.3 mm 9 mps 750 mmHg 89%
    Show more